Location: Presov
(49.0000°N, 21.2500°E)
Time: 07:13:11
(UTC+02:00)

Transit 2A Rocket - Pass Details

Date: 17 April 2021
Orbit: 594 x 909 km, 66.7° (Epoch: 07 May)

Event Time Altitude Azimuth Distance (km) Brightness Sun altitude
Rises 01:58:50 0° 317° (NW) 2,878 8.3 -27.7°
Reaches altitude 10° 02:01:12 10° 307° (NW) 1,996 7.3 -27.5°
Enters shadow 02:01:37 12° 304° (NW) 1,855 7.1 -27.5°
Maximum altitude 02:05:09 31° 245° (WSW) 1,131 - -27.3°
Drops below altitude 10° 02:09:20 10° 183° (S) 2,116 - -27.0°
Sets 02:11:56 0° 174° (S) 3,082 - -26.8°
